Torna al catalogo

INTELSAT 33E DEB

AttivoMEO
NORAD 64404·DEBRIS· XX

Lanciato Aug 24, 2016 da Guiana Space Centre

Loading…

Prossimi Passaggi (prossime 24 ore)

TLE

AggiornatoSource: Space-Track

Epoca: Sep 14, 2026, 19:19 UTC

1 64404U 16053AJ  26257.80506496 -.00000386  00000-0  00000-0 0  9991
2 64404   1.6307  62.8260 0109740  33.1892 328.2300  0.99880486  6802

Traccia INTELSAT 33E DEB in tempo reale con AllMySat

Download on the App Store